Location: Unspecified
(35.7250°N, 0.0000°E)
Time: 08:26:06
(UTC+00:00)

SR - Pass Details

Date: 27 June 2019
Orbit: 580 x 876 km, 66.7° (Epoch: 24 July)

Event Time Altitude Azimuth Distance (km) Brightness Sun altitude
Exits shadow 02:26:49 55° 278° (W) 701 ? -21.8°
Maximum altitude 02:27:09 57° 299° (WNW) 687 ? -21.8°
Drops below altitude 10° 02:31:22 10° 19° (NNE) 1,923 ? -21.3°
Sets 02:33:41 0° 23° (NNE) 2,851 ? -21.0°
